| time (UTC) | temp C | wind direction | speed KPH | gust KPH | rain 1hr cm | rain 24hr cm | rain mn cm | humidity % | barometer mb |
| 20260507120454 | 8 | 210 | 8.0 | 11.3 | 0.00 | 0.00 | 0.00 | 79 | 872.7 |
| 20260507120254 | 8 | 212 | 9.7 | 12.9 | 0.00 | 0.00 | 0.00 | 79 | 872.7 |
| 20260507120052 | 8 | 216 | 8.0 | 11.3 | 0.00 | 0.00 | 0.00 | 79 | 872.7 |
| 20260507115852 | 8 | 216 | 8.0 | 11.3 | 0.00 | 0.00 | 0.00 | 79 | 872.7 |
| 20260507115652 | 8 | 215 | 9.7 | 12.9 | 0.00 | 0.00 | 0.00 | 79 | 872.7 |
| 20260507115453 | 8 | 222 | 11.3 | 12.9 | 0.00 | 0.00 | 0.00 | 79 | 872.7 |
| 20260507115253 | 8 | 223 | 12.9 | 14.5 | 0.00 | 0.00 | 0.00 | 79 | 872.7 |
| 20260507115053 | 8 | 222 | 12.9 | 14.5 | 0.00 | 0.00 | 0.00 | 79 | 872.7 |
| 20260507114853 | 8 | 220 | 11.3 | 14.5 | 0.00 | 0.00 | 0.00 | 79 | 872.7 |
| 20260507114653 | 8 | 215 | 9.7 | 12.9 | 0.00 | 0.00 | 0.00 | 79 | 872.7 |
| 20260507114453 | 8 | 211 | 11.3 | 16.1 | 0.00 | 0.00 | 0.00 | 79 | 872.7 |
| 20260507114253 | 8 | 216 | 11.3 | 12.9 | 0.00 | 0.00 | 0.00 | 79 | 872.7 |
| 20260507114051 | 8 | 215 | 9.7 | 11.3 | 0.00 | 0.00 | 0.00 | 78 | 872.7 |
| 20260507113849 | 8 | 216 | 8.0 | 9.7 | 0.00 | 0.00 | 0.00 | 78 | 872.7 |
| 20260507113649 | 8 | 220 | 8.0 | 11.3 | 0.00 | 0.00 | 0.00 | 78 | 872.6 |
| 20260507113449 | 8 | 224 | 9.7 | 14.5 | 0.00 | 0.00 | 0.00 | 78 | 872.7 |
| 20260507113249 | 8 | 221 | 9.7 | 12.9 | 0.00 | 0.00 | 0.00 | 78 | 872.7 |
| 20260507113049 | 8 | 219 | 9.7 | 12.9 | 0.00 | 0.00 | 0.00 | 78 | 872.7 |
| 20260507112849 | 8 | 215 | 9.7 | 12.9 | 0.00 | 0.00 | 0.00 | 78 | 872.7 |
| 20260507112649 | 8 | 209 | 8.0 | 9.7 | 0.00 | 0.00 | 0.00 | 78 | 872.7 |
| 20260507112449 | 8 | 199 | 6.4 | 9.7 | 0.00 | 0.00 | 0.00 | 78 | 872.6 |
| 20260507112249 | 8 | 207 | 8.0 | 11.3 | 0.00 | 0.00 | 0.00 | 78 | 872.6 |
| 20260507112047 | 8 | 216 | 6.4 | 8.0 | 0.00 | 0.00 | 0.00 | 78 | 872.6 |
| 20260507111847 | 8 | 224 | 6.4 | 6.4 | 0.00 | 0.00 | 0.00 | 78 | 872.6 |
| 20260507111647 | 8 | 232 | 6.4 | 6.4 | 0.00 | 0.00 | 0.00 | 78 | 872.6 |
| 20260507111447 | 8 | 233 | 6.4 | 8.0 | 0.00 | 0.00 | 0.00 | 78 | 872.6 |
| 20260507111247 | 8 | 233 | 4.8 | 6.4 | 0.00 | 0.00 | 0.00 | 78 | 872.6 |
| 20260507111047 | 8 | 227 | 6.4 | 8.0 | 0.00 | 0.00 | 0.00 | 78 | 872.6 |
| 20260507110847 | 8 | 230 | 6.4 | 8.0 | 0.00 | 0.00 | 0.00 | 78 | 872.6 |
| 20260507110647 | 8 | 243 | 6.4 | 9.7 | 0.00 | 0.00 | 0.00 | 78 | 872.6 |
| 20260507110447 | 8 | 253 | 6.4 | 9.7 | 0.00 | 0.00 | 0.00 | 77 | 872.6 |
| 20260507110247 | 9 | 258 | 8.0 | 11.3 | 0.00 | 0.00 | 0.00 | 77 | 872.5 |
| 20260507110045 | 9 | 254 | 9.7 | 11.3 | 0.00 | 0.00 | 0.00 | 77 | 872.5 |
| 20260507105845 | 9 | 249 | 8.0 | 11.3 | 0.00 | 0.00 | 0.00 | 77 | 872.5 |
| 20260507105645 | 9 | 256 | 8.0 | 11.3 | 0.00 | 0.00 | 0.00 | 77 | 872.5 |
| 20260507105445 | 9 | 255 | 6.4 | 9.7 | 0.00 | 0.00 | 0.00 | 77 | 872.5 |
| 20260507105245 | 9 | 260 | 6.4 | 9.7 | 0.00 | 0.00 | 0.00 | 77 | 872.5 |
| 20260507105045 | 9 | 249 | 8.0 | 12.9 | 0.00 | 0.00 | 0.00 | 77 | 872.4 |
| 20260507104845 | 9 | 231 | 8.0 | 12.9 | 0.00 | 0.00 | 0.00 | 77 | 872.4 |
| 20260507104645 | 8 | 223 | 6.4 | 11.3 | 0.00 | 0.00 | 0.00 | 77 | 872.4 |
| 20260507104445 | 8 | 234 | 6.4 | 8.0 | 0.00 | 0.00 | 0.00 | 77 | 872.5 |
| 20260507104245 | 8 | 257 | 6.4 | 9.7 | 0.00 | 0.00 | 0.00 | 77 | 872.5 |
| 20260507104044 | 8 | 255 | 6.4 | 9.7 | 0.00 | 0.00 | 0.00 | 77 | 872.5 |
| 20260507103843 | 9 | 252 | 6.4 | 9.7 | 0.00 | 0.00 | 0.00 | 77 | 872.5 |
| 20260507103643 | 9 | 248 | 8.0 | 11.3 | 0.00 | 0.00 | 0.00 | 77 | 872.4 |
| 20260507103443 | 9 | 246 | 8.0 | 11.3 | 0.00 | 0.00 | 0.00 | 77 | 872.4 |
| 20260507103244 | 9 | 240 | 8.0 | 11.3 | 0.00 | 0.00 | 0.00 | 77 | 872.4 |
| 20260507103032 | 9 | 234 | 4.8 | 9.7 | 0.00 | 0.00 | 0.00 | 77 | 872.4 |
| 20260507102832 | 9 | 229 | 6.4 | 9.7 | 0.00 | 0.00 | 0.00 | 77 | 872.4 |
| 20260507102632 | 9 | 230 | 6.4 | 9.7 | 0.00 | 0.00 | 0.00 | 77 | 872.4 |
| 20260507102432 | 9 | 244 | 6.4 | 8.0 | 0.00 | 0.00 | 0.00 | 77 | 872.4 |
| 20260507102232 | 9 | 256 | 4.8 | 8.0 | 0.00 | 0.00 | 0.00 | 77 | 872.4 |
| 20260507102031 | 9 | 249 | 3.2 | 4.8 | 0.00 | 0.00 | 0.00 | 77 | 872.3 |
| 20260507101830 | 9 | 255 | 4.8 | 9.7 | 0.00 | 0.00 | 0.00 | 77 | 872.3 |
| 20260507101630 | 9 | 249 | 6.4 | 11.3 | 0.00 | 0.00 | 0.00 | 77 | 872.3 |
| 20260507101430 | 9 | 247 | 6.4 | 11.3 | 0.00 | 0.00 | 0.00 | 77 | 872.3 |
| 20260507101229 | 9 | 268 | 8.0 | 11.3 | 0.00 | 0.00 | 0.00 | 77 | 872.2 |
| 20260507101029 | 9 | 263 | 8.0 | 12.9 | 0.00 | 0.00 | 0.00 | 77 | 872.2 |
| 20260507100829 | 9 | 255 | 11.3 | 16.1 | 0.00 | 0.00 | 0.00 | 77 | 872.3 |
| 20260507100629 | 9 | 247 | 9.7 | 12.9 | 0.00 | 0.00 | 0.00 | 77 | 872.3 |
| 20260507100429 | 9 | 242 | 9.7 | 14.5 | 0.00 | 0.00 | 0.00 | 76 | 872.3 |
| 20260507100229 | 9 | 225 | 6.4 | 11.3 | 0.00 | 0.00 | 0.00 | 76 | 872.3 |
| 20260507100027 | 9 | 219 | 6.4 | 8.0 | 0.00 | 0.00 | 0.00 | 76 | 872.3 |
| 20260507095827 | 9 | 229 | 6.4 | 9.7 | 0.00 | 0.00 | 0.00 | 76 | 872.2 |
| 20260507095627 | 9 | 221 | 4.8 | 8.0 | 0.00 | 0.00 | 0.00 | 76 | 872.2 |
| 20260507095427 | 10 | 213 | 8.0 | 14.5 | 0.00 | 0.00 | 0.00 | 76 | 872.2 |
| 20260507095227 | 10 | 218 | 6.4 | 14.5 | 0.00 | 0.00 | 0.00 | 76 | 872.2 |
| 20260507095027 | 10 | 225 | 8.0 | 14.5 | 0.00 | 0.00 | 0.00 | 76 | 872.2 |
| 20260507094827 | 10 | 201 | 9.7 | 16.1 | 0.00 | 0.00 | 0.00 | 76 | 872.2 |
| 20260507094627 | 10 | 188 | 11.3 | 16.1 | 0.00 | 0.00 | 0.00 | 76 | 872.2 |
| 20260507094427 | 10 | 206 | 6.4 | 11.3 | 0.00 | 0.00 | 0.00 | 76 | 872.2 |
| 20260507094227 | 10 | 204 | 3.2 | 6.4 | 0.00 | 0.00 | 0.00 | 76 | 872.1 |
| 20260507094025 | 10 | 202 | 3.2 | 6.4 | 0.00 | 0.00 | 0.00 | 76 | 872.1 |
| 20260507093825 | 10 | 230 | 9.7 | 16.1 | 0.00 | 0.00 | 0.00 | 76 | 872.1 |
| 20260507093626 | 10 | 219 | 9.7 | 16.1 | 0.00 | 0.00 | 0.00 | 76 | 872.1 |
| 20260507093425 | 10 | 218 | 9.7 | 12.9 | 0.00 | 0.00 | 0.00 | 76 | 872.1 |
| 20260507093225 | 10 | 224 | 11.3 | 19.3 | 0.00 | 0.00 | 0.00 | 76 | 872.0 |
| 20260507093025 | 10 | 221 | 9.7 | 14.5 | 0.00 | 0.00 | 0.00 | 76 | 872.0 |
| 20260507092825 | 10 | 206 | 8.0 | 19.3 | 0.00 | 0.00 | 0.00 | 76 | 872.0 |
| 20260507092625 | 10 | 200 | 6.4 | 19.3 | 0.00 | 0.00 | 0.00 | 76 | 872.0 |
| 20260507092425 | 10 | 210 | 8.0 | 14.5 | 0.00 | 0.00 | 0.00 | 76 | 871.9 |
| 20260507092223 | 10 | 205 | 8.0 | 12.9 | 0.00 | 0.00 | 0.00 | 76 | 871.9 |
| 20260507092021 | 10 | 205 | 8.0 | 14.5 | 0.00 | 0.00 | 0.00 | 76 | 871.9 |
| 20260507091821 | 10 | 201 | 9.7 | 16.1 | 0.00 | 0.00 | 0.00 | 77 | 871.9 |
| 20260507091622 | 9 | 197 | 9.7 | 16.1 | 0.00 | 0.00 | 0.00 | 77 | 871.9 |
| 20260507091421 | 9 | 204 | 11.3 | 17.7 | 0.00 | 0.00 | 0.00 | 77 | 871.9 |
| 20260507091221 | 9 | 193 | 12.9 | 17.7 | 0.00 | 0.00 | 0.00 | 77 | 871.8 |
| 20260507091021 | 9 | 186 | 11.3 | 16.1 | 0.00 | 0.00 | 0.00 | 77 | 871.8 |
| 20260507090821 | 9 | 204 | 11.3 | 22.5 | 0.00 | 0.00 | 0.00 | 77 | 871.8 |
| 20260507090621 | 9 | 230 | 8.0 | 11.3 | 0.00 | 0.00 | 0.00 | 77 | 871.8 |
| 20260507090421 | 9 | 230 | 6.4 | 9.7 | 0.00 | 0.00 | 0.00 | 77 | 871.8 |
| 20260507090221 | 9 | 216 | 6.4 | 12.9 | 0.00 | 0.00 | 0.00 | 77 | 871.8 |
| 20260507090019 | 9 | 203 | 9.7 | 16.1 | 0.00 | 0.00 | 0.00 | 77 | 871.8 |
| 20260507085819 | 9 | 213 | 8.0 | 12.9 | 0.00 | 0.00 | 0.00 | 77 | 871.8 |
| 20260507085619 | 9 | 220 | 8.0 | 16.1 | 0.00 | 0.00 | 0.00 | 77 | 871.7 |
| 20260507085419 | 9 | 216 | 8.0 | 11.3 | 0.00 | 0.00 | 0.00 | 77 | 871.7 |
| 20260507085219 | 9 | 216 | 8.0 | 11.3 | 0.00 | 0.00 | 0.00 | 77 | 871.7 |
| 20260507085017 | 9 | 209 | 9.7 | 12.9 | 0.00 | 0.00 | 0.00 | 77 | 871.7 |
| 20260507084817 | 9 | 210 | 8.0 | 17.7 | 0.00 | 0.00 | 0.00 | 77 | 871.7 |
| 20260507084617 | 9 | 223 | 8.0 | 17.7 | 0.00 | 0.00 | 0.00 | 77 | 871.7 |
| 20260507084417 | 9 | 212 | 6.4 | 9.7 | 0.00 | 0.00 | 0.00 | 77 | 871.7 |
| 20260507084217 | 9 | 206 | 8.0 | 12.9 | 0.00 | 0.00 | 0.00 | 77 | 871.6 |
| 20260507084015 | 9 | 218 | 8.0 | 12.9 | 0.00 | 0.00 | 0.00 | 77 | 871.6 |
| 20260507083815 | 9 | 235 | 8.0 | 11.3 | 0.00 | 0.00 | 0.00 | 77 | 871.6 |
| 20260507083615 | 9 | 230 | 11.3 | 20.9 | 0.00 | 0.00 | 0.00 | 76 | 871.5 |
| 20260507083414 | 9 | 231 | 12.9 | 20.9 | 0.00 | 0.00 | 0.00 | 76 | 871.5 |
| 20260507083214 | 9 | 228 | 9.7 | 19.3 | 0.00 | 0.00 | 0.00 | 76 | 871.5 |
| 20260507083014 | 9 | 243 | 11.3 | 19.3 | 0.00 | 0.00 | 0.00 | 77 | 871.4 |
| 20260507082815 | 9 | 242 | 11.3 | 19.3 | 0.00 | 0.00 | 0.00 | 77 | 871.4 |
| 20260507082614 | 9 | 238 | 8.0 | 17.7 | 0.00 | 0.00 | 0.00 | 77 | 871.4 |
| 20260507082414 | 9 | 232 | 11.3 | 20.9 | 0.00 | 0.00 | 0.00 | 76 | 871.4 |
| 20260507082214 | 9 | 226 | 17.7 | 22.5 | 0.00 | 0.00 | 0.00 | 76 | 871.3 |
| 20260507082013 | 9 | 238 | 16.1 | 22.5 | 0.00 | 0.00 | 0.00 | 76 | 871.3 |
| 20260507081813 | 9 | 233 | 14.5 | 25.7 | 0.00 | 0.00 | 0.00 | 76 | 871.3 |
| 20260507081612 | 9 | 225 | 12.9 | 24.1 | 0.00 | 0.00 | 0.00 | 76 | 871.2 |
| 20260507081410 | 9 | 228 | 12.9 | 24.1 | 0.00 | 0.00 | 0.00 | 76 | 871.2 |
| 20260507081210 | 9 | 235 | 12.9 | 24.1 | 0.00 | 0.00 | 0.00 | 76 | 871.2 |
| 20260507081010 | 9 | 232 | 11.3 | 24.1 | 0.00 | 0.00 | 0.00 | 77 | 871.2 |
| 20260507080810 | 9 | 233 | 9.7 | 19.3 | 0.00 | 0.00 | 0.00 | 76 | 871.1 |
| 20260507080610 | 9 | 231 | 14.5 | 25.7 | 0.00 | 0.00 | 0.00 | 76 | 871.1 |
| 20260507080410 | 9 | 225 | 12.9 | 17.7 | 0.00 | 0.00 | 0.00 | 76 | 871.0 |
| 20260507080210 | 9 | 239 | 16.1 | 25.7 | 0.00 | 0.00 | 0.00 | 77 | 871.0 |
| 20260507080031 | 9 | 237 | 16.1 | 25.7 | 0.00 | 0.00 | 0.00 | 76 | 871.0 |
| 20260507075959 | 9 | 237 | 16.1 | 25.7 | 0.00 | 0.00 | 0.00 | 76 | 871.0 |
| 20260507075759 | 9 | 248 | 14.5 | 22.5 | 0.00 | 0.00 | 0.00 | 77 | 871.0 |
| 20260507075559 | 9 | 230 | 14.5 | 24.1 | 0.00 | 0.00 | 0.00 | 77 | 871.0 |
| 20260507075359 | 9 | 228 | 14.5 | 22.5 | 0.00 | 0.00 | 0.00 | 77 | 871.0 |
| 20260507075159 | 9 | 236 | 11.3 | 22.5 | 0.00 | 0.00 | 0.00 | 77 | 871.0 |
| 20260507074959 | 9 | 221 | 11.3 | 17.7 | 0.00 | 0.00 | 0.00 | 77 | 871.0 |
| 20260507074759 | 8 | 218 | 9.7 | 19.3 | 0.00 | 0.00 | 0.00 | 77 | 870.9 |
| 20260507074559 | 8 | 226 | 12.9 | 20.9 | 0.00 | 0.00 | 0.00 | 77 | 870.8 |
| 20260507074358 | 8 | 222 | 12.9 | 20.9 | 0.00 | 0.00 | 0.00 | 77 | 870.8 |
| 20260507073956 | 8 | 218 | 14.5 | 22.5 | 0.00 | 0.00 | 0.00 | 77 | 870.7 |
| 20260507073756 | 8 | 227 | 19.3 | 35.4 | 0.00 | 0.00 | 0.00 | 77 | 870.7 |
| 20260507073556 | 8 | 212 | 17.7 | 25.7 | 0.00 | 0.00 | 0.00 | 77 | 870.7 |
| 20260507073357 | 8 | 215 | 16.1 | 22.5 | 0.00 | 0.00 | 0.00 | 77 | 870.7 |
| 20260507073229 | 8 | 214 | 16.1 | 24.1 | 0.00 | 0.00 | 0.00 | 77 | 870.7 |
| 20260507073157 | 8 | 214 | 16.1 | 24.1 | 0.00 | 0.00 | 0.00 | 77 | 870.7 |
| 20260507072957 | 8 | 217 | 17.7 | 27.4 | 0.00 | 0.00 | 0.00 | 77 | 870.6 |
| 20260507072757 | 8 | 219 | 16.1 | 27.4 | 0.00 | 0.00 | 0.00 | 77 | 870.6 |
| 20260507072557 | 8 | 213 | 16.1 | 30.6 | 0.00 | 0.00 | 0.00 | 77 | 870.5 |
| 20260507072357 | 8 | 215 | 16.1 | 30.6 | 0.00 | 0.00 | 0.00 | 77 | 870.5 |
| 20260507072156 | 8 | 221 | 16.1 | 25.7 | 0.00 | 0.00 | 0.00 | 77 | 870.5 |
| 20260507071954 | 8 | 211 | 20.9 | 27.4 | 0.00 | 0.00 | 0.00 | 77 | 870.4 |
| 20260507071754 | 8 | 212 | 22.5 | 32.2 | 0.00 | 0.00 | 0.00 | 77 | 870.4 |
| 20260507071554 | 8 | 216 | 20.9 | 32.2 | 0.00 | 0.00 | 0.00 | 77 | 870.4 |
| 20260507071354 | 8 | 219 | 19.3 | 24.1 | 0.00 | 0.00 | 0.00 | 78 | 870.4 |
| 20260507071154 | 8 | 219 | 19.3 | 32.2 | 0.00 | 0.00 | 0.00 | 77 | 870.3 |
| 20260507070954 | 8 | 217 | 20.9 | 32.2 | 0.00 | 0.00 | 0.00 | 78 | 870.3 |
| 20260507070754 | 8 | 215 | 24.1 | 38.6 | 0.00 | 0.00 | 0.00 | 78 | 870.2 |
| 20260507070552 | 8 | 220 | 27.4 | 38.6 | 0.00 | 0.00 | 0.00 | 77 | 870.1 |
| 20260507070352 | 8 | 220 | 25.7 | 35.4 | 0.00 | 0.00 | 0.00 | 77 | 870.1 |
| 20260507070152 | 8 | 226 | 22.5 | 33.8 | 0.00 | 0.00 | 0.00 | 77 | 870.1 |
| 20260507065950 | 8 | 226 | 19.3 | 27.4 | 0.00 | 0.00 | 0.00 | 77 | 870.2 |
| 20260507065750 | 8 | 221 | 19.3 | 25.7 | 0.00 | 0.00 | 0.00 | 77 | 870.2 |
| 20260507065550 | 8 | 220 | 17.7 | 29.0 | 0.00 | 0.00 | 0.00 | 77 | 870.2 |
| 20260507065350 | 8 | 221 | 19.3 | 29.0 | 0.00 | 0.00 | 0.00 | 77 | 870.1 |
| 20260507065150 | 8 | 218 | 22.5 | 29.0 | 0.00 | 0.00 | 0.00 | 77 | 870.1 |
| 20260507064949 | 8 | 217 | 19.3 | 30.6 | 0.00 | 0.00 | 0.00 | 77 | 870.1 |
| 20260507064749 | 8 | 212 | 19.3 | 30.6 | 0.00 | 0.00 | 0.00 | 77 | 870.1 |
| 20260507064549 | 8 | 215 | 20.9 | 33.8 | 0.00 | 0.00 | 0.00 | 77 | 870.1 |
| 20260507064349 | 8 | 218 | 20.9 | 35.4 | 0.00 | 0.00 | 0.00 | 77 | 870.1 |
| 20260507064149 | 8 | 220 | 19.3 | 35.4 | 0.00 | 0.00 | 0.00 | 77 | 870.1 |
| 20260507063947 | 8 | 214 | 22.5 | 35.4 | 0.00 | 0.00 | 0.00 | 77 | 870.0 |
| 20260507063747 | 8 | 215 | 22.5 | 41.8 | 0.00 | 0.00 | 0.00 | 78 | 870.0 |
| 20260507063547 | 8 | 207 | 19.3 | 27.4 | 0.00 | 0.00 | 0.00 | 78 | 870.0 |
| 20260507063347 | 8 | 210 | 19.3 | 33.8 | 0.00 | 0.00 | 0.00 | 78 | 870.0 |
| 20260507063147 | 8 | 213 | 20.9 | 37.0 | 0.00 | 0.00 | 0.00 | 78 | 870.0 |
| 20260507062947 | 8 | 209 | 22.5 | 37.0 | 0.00 | 0.00 | 0.00 | 78 | 869.9 |
| 20260507062747 | 8 | 213 | 22.5 | 37.0 | 0.00 | 0.00 | 0.00 | 77 | 869.9 |
| 20260507062547 | 8 | 204 | 19.3 | 30.6 | 0.00 | 0.00 | 0.00 | 78 | 869.9 |
| 20260507062347 | 8 | 201 | 22.5 | 37.0 | 0.00 | 0.00 | 0.00 | 77 | 869.9 |
| 20260507062147 | 8 | 196 | 22.5 | 37.0 | 0.00 | 0.00 | 0.00 | 77 | 869.8 |
| 20260507061945 | 8 | 201 | 20.9 | 33.8 | 0.00 | 0.00 | 0.00 | 78 | 869.8 |
| 20260507061745 | 8 | 194 | 20.9 | 40.2 | 0.00 | 0.00 | 0.00 | 78 | 869.7 |
| 20260507061546 | 8 | 205 | 22.5 | 40.2 | 0.00 | 0.00 | 0.00 | 78 | 869.7 |
| 20260507061346 | 8 | 203 | 20.9 | 35.4 | 0.00 | 0.00 | 0.00 | 78 | 869.6 |
| 20260507061146 | 7 | 207 | 22.5 | 40.2 | 0.00 | 0.00 | 0.00 | 78 | 869.6 |
| 20260507060946 | 7 | 209 | 25.7 | 37.0 | 0.00 | 0.00 | 0.00 | 78 | 869.5 |
| 20260507060746 | 7 | 202 | 22.5 | 35.4 | 0.00 | 0.00 | 0.00 | 78 | 869.4 |
| 20260507060546 | 7 | 198 | 29.0 | 48.3 | 0.00 | 0.00 | 0.00 | 78 | 869.4 |
| 20260507060346 | 7 | 194 | 25.7 | 48.3 | 0.00 | 0.00 | 0.00 | 78 | 869.3 |
| 20260507060146 | 7 | 198 | 27.4 | 40.2 | 0.00 | 0.00 | 0.00 | 78 | 869.3 |
| 20260507055944 | 7 | 191 | 32.2 | 48.3 | 0.00 | 0.00 | 0.00 | 78 | 869.3 |
| 20260507055742 | 7 | 193 | 32.2 | 48.3 | 0.00 | 0.00 | 0.00 | 78 | 869.2 |
| 20260507055542 | 7 | 193 | 30.6 | 43.5 | 0.00 | 0.00 | 0.00 | 78 | 869.2 |
| 20260507055342 | 7 | 191 | 35.4 | 57.9 | 0.00 | 0.00 | 0.00 | 78 | 869.1 |
| 20260507055142 | 7 | 187 | 35.4 | 46.7 | 0.00 | 0.00 | 0.00 | 78 | 869.1 |
| 20260507054942 | 7 | 189 | 35.4 | 51.5 | 0.00 | 0.00 | 0.00 | 78 | 869.0 |
| 20260507054820 | 7 | 185 | 41.8 | 51.5 | 0.00 | 0.00 | 0.00 | 78 | 869.0 |
| 20260507054742 | 7 | 185 | 41.8 | 51.5 | 0.00 | 0.00 | 0.00 | 78 | 869.0 |
| 20260507054542 | 7 | 193 | 37.0 | 51.5 | 0.00 | 0.00 | 0.00 | 78 | 869.0 |
| 20260507054342 | 7 | 196 | 32.2 | 49.9 | 0.00 | 0.00 | 0.00 | 78 | 869.0 |
| 20260507054142 | 7 | 192 | 32.2 | 49.9 | 0.00 | 0.00 | 0.00 | 78 | 868.9 |
| 20260507053940 | 7 | 189 | 37.0 | 51.5 | 0.00 | 0.00 | 0.00 | 78 | 868.8 |
| 20260507053740 | 7 | 186 | 41.8 | 53.1 | 0.00 | 0.00 | 0.00 | 78 | 868.8 |
| 20260507053540 | 7 | 189 | 38.6 | 53.1 | 0.00 | 0.00 | 0.00 | 78 | 868.8 |
| 20260507053340 | 7 | 193 | 37.0 | 49.9 | 0.00 | 0.00 | 0.00 | 78 | 868.9 |
| 20260507053140 | 7 | 190 | 33.8 | 51.5 | 0.00 | 0.00 | 0.00 | 78 | 868.8 |
| 20260507052931 | 7 | 188 | 35.4 | 54.7 | 0.00 | 0.00 | 0.00 | 78 | 868.8 |
| 20260507052731 | 7 | 191 | 35.4 | 51.5 | 0.00 | 0.00 | 0.00 | 78 | 868.8 |
| 20260507052531 | 7 | 187 | 37.0 | 48.3 | 0.00 | 0.00 | 0.00 | 78 | 868.8 |
| 20260507052331 | 7 | 188 | 38.6 | 51.5 | 0.00 | 0.00 | 0.00 | 78 | 868.8 |
| 20260507052131 | 7 | 192 | 38.6 | 51.5 | 0.00 | 0.00 | 0.00 | 78 | 868.9 |
| 20260507051929 | 7 | 194 | 35.4 | 48.3 | 0.00 | 0.00 | 0.00 | 78 | 868.9 |
| 20260507051729 | 7 | 190 | 38.6 | 57.9 | 0.00 | 0.00 | 0.00 | 78 | 868.9 |
| 20260507051530 | 7 | 188 | 41.8 | 57.9 | 0.00 | 0.00 | 0.00 | 78 | 868.8 |
| 20260507051329 | 7 | 186 | 40.2 | 56.3 | 0.00 | 0.00 | 0.00 | 78 | 868.8 |
| 20260507051129 | 7 | 186 | 37.0 | 54.7 | 0.00 | 0.00 | 0.00 | 78 | 868.8 |
| 20260507050929 | 7 | 186 | 37.0 | 48.3 | 0.00 | 0.00 | 0.00 | 78 | 868.8 |
| 20260507050729 | 7 | 191 | 32.2 | 48.3 | 0.00 | 0.00 | 0.00 | 78 | 868.8 |
| 20260507050529 | 7 | 193 | 30.6 | 53.1 | 0.00 | 0.00 | 0.00 | 78 | 868.8 |
| 20260507050329 | 7 | 187 | 38.6 | 53.1 | 0.00 | 0.00 | 0.00 | 78 | 868.7 |
| 20260507050129 | 7 | 192 | 38.6 | 53.1 | 0.00 | 0.00 | 0.00 | 78 | 868.7 |
| 20260507045926 | 7 | 193 | 32.2 | 48.3 | 0.00 | 0.00 | 0.00 | 78 | 868.7 |
| 20260507045726 | 7 | 191 | 30.6 | 45.1 | 0.00 | 0.00 | 0.00 | 78 | 868.7 |
| 20260507045526 | 7 | 200 | 30.6 | 40.2 | 0.00 | 0.00 | 0.00 | 78 | 868.7 |
| 20260507045326 | 7 | 209 | 29.0 | 40.2 | 0.00 | 0.00 | 0.00 | 78 | 868.7 |
| 20260507045127 | 7 | 207 | 27.4 | 37.0 | 0.00 | 0.00 | 0.00 | 78 | 868.6 |
| 20260507044925 | 7 | 197 | 33.8 | 46.7 | 0.00 | 0.00 | 0.00 | 78 | 868.6 |
| 20260507044725 | 7 | 194 | 33.8 | 46.7 | 0.00 | 0.00 | 0.00 | 78 | 868.5 |
| 20260507044525 | 7 | 196 | 32.2 | 46.7 | 0.00 | 0.00 | 0.00 | 78 | 868.6 |
| 20260507044325 | 7 | 197 | 29.0 | 41.8 | 0.00 | 0.00 | 0.00 | 78 | 868.6 |
| 20260507044125 | 7 | 194 | 32.2 | 49.9 | 0.00 | 0.00 | 0.00 | 78 | 868.6 |
| 20260507043923 | 7 | 194 | 30.6 | 49.9 | 0.00 | 0.00 | 0.00 | 78 | 868.6 |
| 20260507043723 | 7 | 197 | 30.6 | 40.2 | 0.00 | 0.00 | 0.00 | 78 | 868.6 |
| 20260507043523 | 7 | 191 | 32.2 | 45.1 | 0.00 | 0.00 | 0.00 | 78 | 868.7 |
| 20260507043323 | 7 | 193 | 32.2 | 48.3 | 0.00 | 0.00 | 0.00 | 78 | 868.7 |
| 20260507043123 | 7 | 199 | 32.2 | 48.3 | 0.00 | 0.00 | 0.00 | 78 | 868.7 |
| 20260507042923 | 7 | 203 | 27.4 | 43.5 | 0.00 | 0.00 | 0.00 | 78 | 868.7 |
| 20260507042723 | 7 | 197 | 29.0 | 41.8 | 0.00 | 0.00 | 0.00 | 78 | 868.7 |
| 20260507042523 | 7 | 198 | 30.6 | 46.7 | 0.00 | 0.00 | 0.00 | 78 | 868.8 |
| 20260507042323 | 7 | 197 | 30.6 | 46.7 | 0.00 | 0.00 | 0.00 | 78 | 868.8 |
| 20260507042123 | 7 | 197 | 29.0 | 46.7 | 0.00 | 0.00 | 0.00 | 78 | 868.7 |
| 20260507041921 | 7 | 194 | 25.7 | 41.8 | 0.00 | 0.00 | 0.00 | 78 | 868.7 |
| 20260507041721 | 7 | 200 | 27.4 | 41.8 | 0.00 | 0.00 | 0.00 | 77 | 868.7 |
| 20260507041521 | 7 | 199 | 32.2 | 48.3 | 0.00 | 0.00 | 0.00 | 77 | 868.7 |
| 20260507041321 | 7 | 203 | 30.6 | 53.1 | 0.00 | 0.00 | 0.00 | 77 | 868.7 |
| 20260507041122 | 7 | 201 | 30.6 | 53.1 | 0.00 | 0.00 | 0.00 | 77 | 868.7 |
| 20260507040921 | 7 | 199 | 25.7 | 33.8 | 0.00 | 0.00 | 0.00 | 77 | 868.6 |
| 20260507040721 | 7 | 196 | 30.6 | 51.5 | 0.00 | 0.00 | 0.00 | 77 | 868.6 |
| 20260507040521 | 7 | 198 | 29.0 | 51.5 | 0.00 | 0.00 | 0.00 | 77 | 868.6 |
| 20260507040321 | 7 | 192 | 27.4 | 46.7 | 0.00 | 0.00 | 0.00 | 77 | 868.5 |
| 20260507040121 | 7 | 193 | 33.8 | 46.7 | 0.00 | 0.00 | 0.00 | 77 | 868.5 |
| 20260507035919 | 7 | 189 | 37.0 | 46.7 | 0.00 | 0.00 | 0.00 | 77 | 868.5 |
| 20260507035719 | 7 | 190 | 37.0 | 48.3 | 0.00 | 0.00 | 0.00 | 77 | 868.5 |
| 20260507035519 | 7 | 189 | 37.0 | 48.3 | 0.00 | 0.00 | 0.00 | 77 | 868.4 |
| 20260507035319 | 7 | 189 | 35.4 | 49.9 | 0.00 | 0.00 | 0.00 | 77 | 868.4 |
| 20260507035119 | 7 | 188 | 33.8 | 43.5 | 0.00 | 0.00 | 0.00 | 77 | 868.3 |
| 20260507034919 | 7 | 188 | 37.0 | 51.5 | 0.00 | 0.00 | 0.00 | 77 | 868.3 |
| 20260507034719 | 7 | 189 | 38.6 | 51.5 | 0.00 | 0.00 | 0.00 | 77 | 868.3 |
| 20260507034519 | 7 | 192 | 37.0 | 54.7 | 0.00 | 0.00 | 0.00 | 77 | 868.3 |
| 20260507034319 | 7 | 188 | 41.8 | 54.7 | 0.00 | 0.00 | 0.00 | 77 | 868.3 |
| 20260507034117 | 7 | 190 | 41.8 | 64.4 | 0.00 | 0.00 | 0.00 | 77 | 868.2 |
| 20260507033915 | 7 | 184 | 37.0 | 64.4 | 0.00 | 0.00 | 0.00 | 77 | 868.2 |
| 20260507033715 | 7 | 186 | 40.2 | 62.8 | 0.00 | 0.00 | 0.00 | 77 | 868.1 |
| 20260507033515 | 7 | 183 | 40.2 | 62.8 | 0.00 | 0.00 | 0.00 | 77 | 868.0 |
| 20260507033315 | 7 | 184 | 38.6 | 56.3 | 0.00 | 0.00 | 0.00 | 77 | 868.0 |
| 20260507033115 | 7 | 183 | 43.5 | 56.3 | 0.00 | 0.00 | 0.00 | 76 | 867.9 |
| 20260507032914 | 7 | 182 | 41.8 | 57.9 | 0.00 | 0.00 | 0.00 | 76 | 867.9 |
| 20260507032715 | 7 | 181 | 37.0 | 49.9 | 0.00 | 0.00 | 0.00 | 76 | 868.0 |
| 20260507032515 | 7 | 183 | 37.0 | 54.7 | 0.00 | 0.00 | 0.00 | 76 | 868.0 |
| 20260507032315 | 7 | 183 | 40.2 | 54.7 | 0.00 | 0.00 | 0.00 | 76 | 868.0 |
| 20260507032115 | 7 | 185 | 38.6 | 53.1 | 0.00 | 0.00 | 0.00 | 76 | 868.0 |
| 20260507031913 | 7 | 188 | 40.2 | 57.9 | 0.00 | 0.00 | 0.00 | 76 | 868.0 |
| 20260507031713 | 7 | 186 | 40.2 | 56.3 | 0.00 | 0.00 | 0.00 | 76 | 868.0 |
| 20260507031513 | 7 | 186 | 38.6 | 56.3 | 0.00 | 0.00 | 0.00 | 76 | 868.0 |
| 20260507031313 | 7 | 186 | 43.5 | 54.7 | 0.00 | 0.00 | 0.00 | 76 | 812.1 |
| 20260507031113 | 7 | 190 | 41.8 | 49.9 | 0.00 | 0.00 | 0.00 | 76 | 756.4 |
| 20260507030902 | 7 | 183 | 40.2 | 51.5 | 0.00 | 0.00 | 0.00 | 76 | 868.1 |
| 20260507030700 | 7 | 183 | 38.6 | 51.5 | 0.00 | 0.00 | 0.00 | 76 | 868.2 |
| 20260507030500 | 7 | 189 | 35.4 | 48.3 | 0.00 | 0.00 | 0.00 | 76 | 868.2 |
| 20260507030300 | 7 | 186 | 40.2 | 56.3 | 0.00 | 0.00 | 0.00 | 76 | 868.1 |
| 20260507030100 | 7 | 185 | 41.8 | 61.2 | 0.00 | 0.00 | 0.00 | 76 | 868.1 |
| 20260507025900 | 7 | 183 | 38.6 | 56.3 | 0.00 | 0.00 | 0.00 | 76 | 868.2 |
| 20260507025700 | 7 | 183 | 41.8 | 61.2 | 0.00 | 0.00 | 0.00 | 75 | 868.1 |
| 20260507025500 | 7 | 184 | 37.0 | 45.1 | 0.00 | 0.00 | 0.00 | 75 | 868.2 |
| 20260507025300 | 7 | 182 | 40.2 | 61.2 | 0.00 | 0.00 | 0.00 | 75 | 868.1 |
| 20260507025100 | 7 | 182 | 41.8 | 61.2 | 0.00 | 0.00 | 0.00 | 75 | 868.2 |
| 20260507024859 | 7 | 183 | 43.5 | 59.5 | 0.00 | 0.00 | 0.00 | 75 | 868.2 |
| 20260507024659 | 7 | 182 | 40.2 | 59.5 | 0.00 | 0.00 | 0.00 | 75 | 868.1 |
| 20260507024459 | 7 | 182 | 37.0 | 53.1 | 0.00 | 0.00 | 0.00 | 75 | 868.2 |
| 20260507024259 | 7 | 177 | 37.0 | 53.1 | 0.00 | 0.00 | 0.00 | 75 | 868.2 |
| 20260507024059 | 7 | 172 | 40.2 | 54.7 | 0.00 | 0.00 | 0.00 | 75 | 868.3 |
| 20260507023859 | 7 | 174 | 37.0 | 51.5 | 0.00 | 0.00 | 0.00 | 75 | 868.3 |
| 20260507023659 | 7 | 182 | 38.6 | 49.9 | 0.00 | 0.00 | 0.00 | 75 | 868.3 |
| 20260507023459 | 7 | 175 | 38.6 | 49.9 | 0.00 | 0.00 | 0.00 | 75 | 868.3 |
| 20260507023259 | 7 | 180 | 37.0 | 48.3 | 0.00 | 0.00 | 0.00 | 75 | 868.3 |
| 20260507023059 | 7 | 178 | 32.2 | 45.1 | 0.00 | 0.00 | 0.00 | 75 | 868.3 |
| 20260507022857 | 7 | 175 | 32.2 | 45.1 | 0.00 | 0.00 | 0.00 | 75 | 868.3 |
| 20260507022657 | 7 | 172 | 33.8 | 53.1 | 0.00 | 0.00 | 0.00 | 75 | 868.3 |
| 20260507022457 | 7 | 174 | 35.4 | 53.1 | 0.00 | 0.00 | 0.00 | 75 | 868.3 |
| 20260507022257 | 7 | 175 | 33.8 | 57.9 | 0.00 | 0.00 | 0.00 | 75 | 868.3 |
| 20260507022057 | 7 | 180 | 38.6 | 57.9 | 0.00 | 0.00 | 0.00 | 75 | 868.3 |
| 20260507021857 | 7 | 172 | 33.8 | 57.9 | 0.00 | 0.00 | 0.00 | 75 | 868.3 |
| 20260507021657 | 7 | 167 | 33.8 | 57.9 | 0.00 | 0.00 | 0.00 | 74 | 868.2 |
| 20260507021457 | 7 | 172 | 37.0 | 48.3 | 0.00 | 0.00 | 0.00 | 74 | 868.2 |
| 20260507021257 | 7 | 172 | 35.4 | 43.5 | 0.00 | 0.00 | 0.00 | 74 | 868.2 |
| 20260507021057 | 7 | 177 | 38.6 | 56.3 | 0.00 | 0.00 | 0.00 | 74 | 868.2 |
| 20260507020855 | 7 | 182 | 38.6 | 53.1 | 0.00 | 0.00 | 0.00 | 74 | 868.2 |
| 20260507020655 | 7 | 178 | 41.8 | 57.9 | 0.00 | 0.00 | 0.00 | 74 | 868.1 |
| 20260507020455 | 7 | 180 | 38.6 | 57.9 | 0.00 | 0.00 | 0.00 | 74 | 868.1 |
| 20260507020255 | 7 | 175 | 38.6 | 54.7 | 0.00 | 0.00 | 0.00 | 74 | 868.1 |
| 20260507020055 | 7 | 172 | 38.6 | 54.7 | 0.00 | 0.00 | 0.00 | 74 | 868.1 |
| 20260507015853 | 7 | 174 | 33.8 | 45.1 | 0.00 | 0.00 | 0.00 | 74 | 868.3 |
| 20260507015653 | 7 | 179 | 32.2 | 41.8 | 0.00 | 0.00 | 0.00 | 74 | 868.3 |
| 20260507015453 | 7 | 178 | 30.6 | 43.5 | 0.00 | 0.00 | 0.00 | 74 | 868.3 |
| 20260507015253 | 7 | 175 | 30.6 | 45.1 | 0.00 | 0.00 | 0.00 | 74 | 868.2 |
| 20260507015053 | 7 | 177 | 35.4 | 51.5 | 0.00 | 0.00 | 0.00 | 74 | 868.2 |
| 20260507014851 | 7 | 173 | 41.8 | 53.1 | 0.00 | 0.00 | 0.00 | 74 | 868.1 |
| 20260507014651 | 7 | 172 | 38.6 | 57.9 | 0.00 | 0.00 | 0.00 | 74 | 868.0 |
| 20260507014451 | 7 | 171 | 35.4 | 54.7 | 0.00 | 0.00 | 0.00 | 74 | 868.0 |
| 20260507014251 | 7 | 166 | 40.2 | 54.7 | 0.00 | 0.00 | 0.00 | 74 | 868.0 |
| 20260507014051 | 7 | 161 | 35.4 | 54.7 | 0.00 | 0.00 | 0.00 | 74 | 868.0 |
| 20260507013851 | 7 | 169 | 38.6 | 53.1 | 0.00 | 0.00 | 0.00 | 74 | 868.1 |
| 20260507013651 | 7 | 177 | 37.0 | 53.1 | 0.00 | 0.00 | 0.00 | 73 | 868.2 |
| 20260507013451 | 7 | 180 | 33.8 | 51.5 | 0.00 | 0.00 | 0.00 | 73 | 868.3 |
| 20260507013252 | 7 | 176 | 37.0 | 51.5 | 0.00 | 0.00 | 0.00 | 73 | 868.4 |
| 20260507013050 | 7 | 178 | 33.8 | 41.8 | 0.00 | 0.00 | 0.00 | 73 | 868.5 |
| 20260507012848 | 7 | 182 | 35.4 | 46.7 | 0.00 | 0.00 | 0.00 | 73 | 868.5 |
| 20260507012648 | 7 | 180 | 32.2 | 45.1 | 0.00 | 0.00 | 0.00 | 73 | 868.5 |
| 20260507012448 | 7 | 177 | 32.2 | 45.1 | 0.00 | 0.00 | 0.00 | 73 | 868.5 |
| 20260507012248 | 7 | 179 | 32.2 | 45.1 | 0.00 | 0.00 | 0.00 | 73 | 868.5 |
| 20260507012048 | 7 | 187 | 30.6 | 46.7 | 0.00 | 0.00 | 0.00 | 73 | 868.5 |
| 20260507011848 | 8 | 179 | 33.8 | 53.1 | 0.00 | 0.00 | 0.00 | 73 | 868.5 |
| 20260507011648 | 8 | 182 | 30.6 | 53.1 | 0.00 | 0.00 | 0.00 | 73 | 868.4 |
| 20260507011448 | 8 | 185 | 27.4 | 48.3 | 0.00 | 0.00 | 0.00 | 73 | 868.4 |
| 20260507011248 | 8 | 180 | 29.0 | 48.3 | 0.00 | 0.00 | 0.00 | 73 | 868.4 |
| 20260507011048 | 8 | 174 | 29.0 | 40.2 | 0.00 | 0.00 | 0.00 | 73 | 868.4 |
| 20260507010846 | 8 | 171 | 35.4 | 53.1 | 0.00 | 0.00 | 0.00 | 73 | 868.3 |
| 20260507010645 | 8 | 172 | 37.0 | 53.1 | 0.00 | 0.00 | 0.00 | 73 | 868.3 |
| 20260507010446 | 8 | 175 | 32.2 | 49.9 | 0.00 | 0.00 | 0.00 | 73 | 868.3 |
| 20260507010246 | 8 | 177 | 27.4 | 38.6 | 0.00 | 0.00 | 0.00 | 72 | 868.3 |
| 20260507010046 | 8 | 178 | 30.6 | 45.1 | 0.00 | 0.00 | 0.00 | 72 | 868.2 |
| 20260507005844 | 8 | 184 | 32.2 | 45.1 | 0.00 | 0.00 | 0.00 | 72 | 868.2 |
| 20260507005645 | 8 | 185 | 32.2 | 43.5 | 0.00 | 0.00 | 0.00 | 72 | 868.2 |
| 20260507005444 | 8 | 179 | 32.2 | 43.5 | 0.00 | 0.00 | 0.00 | 72 | 868.2 |
| 20260507005245 | 8 | 182 | 30.6 | 41.8 | 0.00 | 0.00 | 0.00 | 72 | 868.2 |
| 20260507005042 | 8 | 179 | 27.4 | 41.8 | 0.00 | 0.00 | 0.00 | 72 | 868.3 |
| 20260507004840 | 8 | 178 | 29.0 | 41.8 | 0.00 | 0.00 | 0.00 | 72 | 868.3 |
| 20260507004640 | 8 | 177 | 29.0 | 37.0 | 0.00 | 0.00 | 0.00 | 72 | 868.2 |
| 20260507004441 | 8 | 178 | 30.6 | 49.9 | 0.00 | 0.00 | 0.00 | 72 | 868.2 |
| 20260507004240 | 8 | 178 | 38.6 | 62.8 | 0.00 | 0.00 | 0.00 | 72 | 868.2 |
| 20260507004040 | 8 | 184 | 35.4 | 62.8 | 0.00 | 0.00 | 0.00 | 72 | 868.2 |
| 20260507003831 | 8 | 184 | 25.7 | 41.8 | 0.00 | 0.00 | 0.00 | 72 | 868.3 |
| 20260507003631 | 8 | 175 | 29.0 | 38.6 | 0.00 | 0.00 | 0.00 | 72 | 868.3 |
| 20260507003431 | 8 | 180 | 27.4 | 40.2 | 0.00 | 0.00 | 0.00 | 72 | 868.3 |
| 20260507003231 | 8 | 180 | 29.0 | 43.5 | 0.00 | 0.00 | 0.00 | 72 | 868.3 |
| 20260507003031 | 8 | 174 | 30.6 | 43.5 | 0.00 | 0.00 | 0.00 | 72 | 868.3 |
| 20260507002829 | 8 | 175 | 22.5 | 40.2 | 0.00 | 0.00 | 0.00 | 72 | 868.3 |
| 20260507002629 | 8 | 175 | 29.0 | 49.9 | 0.00 | 0.00 | 0.00 | 72 | 868.2 |
| 20260507002429 | 8 | 168 | 32.2 | 57.9 | 0.00 | 0.00 | 0.00 | 72 | 868.1 |
| 20260507002229 | 8 | 172 | 29.0 | 57.9 | 0.00 | 0.00 | 0.00 | 72 | 868.2 |
| 20260507002029 | 8 | 177 | 19.3 | 30.6 | 0.00 | 0.00 | 0.00 | 71 | 868.2 |
| 20260507001827 | 8 | 175 | 27.4 | 49.9 | 0.00 | 0.00 | 0.00 | 72 | 868.2 |
| 20260507001627 | 8 | 175 | 35.4 | 53.1 | 0.00 | 0.00 | 0.00 | 72 | 868.2 |
| 20260507001427 | 8 | 183 | 32.2 | 67.6 | 0.00 | 0.00 | 0.00 | 71 | 868.2 |
| 20260507001227 | 8 | 182 | 32.2 | 67.6 | 0.00 | 0.00 | 0.00 | 71 | 868.1 |
| 20260507001027 | 8 | 180 | 33.8 | 59.5 | 0.00 | 0.00 | 0.00 | 71 | 868.1 |
| 20260507000825 | 8 | 175 | 37.0 | 59.5 | 0.00 | 0.00 | 0.00 | 71 | 868.1 |
| 20260507000427 | 8 | 180 | 32.2 | 46.7 | 0.00 | 0.00 | 0.00 | 71 | 868.1 |
| 20260507000226 | 8 | 182 | 33.8 | 53.1 | 0.00 | 0.00 | 0.00 | 71 | 868.1 |
| 20260507000025 | 8 | 183 | 33.8 | 53.1 | 0.00 | 0.00 | 0.00 | 71 | 868.1 |
| 20260506235825 | 8 | 178 | 32.2 | 40.2 | 0.00 | 0.00 | 0.00 | 71 | 868.1 |
| 20260506235625 | 8 | 173 | 33.8 | 45.1 | 0.00 | 0.00 | 0.00 | 71 | 868.1 |
| 20260506235425 | 8 | 169 | 27.4 | 40.2 | 0.00 | 0.00 | 0.00 | 71 | 868.0 |
| 20260506235225 | 8 | 171 | 29.0 | 46.7 | 0.00 | 0.00 | 0.00 | 71 | 868.0 |
| 20260506235025 | 8 | 171 | 32.2 | 53.1 | 0.00 | 0.00 | 0.00 | 71 | 868.0 |
| 20260506234823 | 8 | 173 | 35.4 | 53.1 | 0.00 | 0.00 | 0.00 | 71 | 868.0 |
| 20260506234623 | 8 | 174 | 33.8 | 46.7 | 0.00 | 0.00 | 0.00 | 71 | 868.0 |
| 20260506234423 | 8 | 173 | 30.6 | 46.7 | 0.00 | 0.00 | 0.00 | 71 | 868.0 |
| 20260506234221 | 8 | 168 | 32.2 | 40.2 | 0.00 | 0.00 | 0.00 | 71 | 868.0 |
| 20260506234021 | 8 | 173 | 33.8 | 46.7 | 0.00 | 0.00 | 0.00 | 71 | 868.0 |
| 20260506233821 | 8 | 170 | 35.4 | 54.7 | 0.00 | 0.00 | 0.00 | 71 | 868.0 |
| 20260506233621 | 8 | 167 | 38.6 | 61.2 | 0.00 | 0.00 | 0.00 | 71 | 868.0 |
| 20260506233421 | 8 | 168 | 41.8 | 61.2 | 0.00 | 0.00 | 0.00 | 71 | 868.1 |
| 20260506233222 | 8 | 170 | 32.2 | 56.3 | 0.00 | 0.00 | 0.00 | 71 | 868.1 |
| 20260506233022 | 8 | 171 | 32.2 | 53.1 | 0.00 | 0.00 | 0.00 | 71 | 868.1 |
| 20260506232820 | 8 | 172 | 35.4 | 53.1 | 0.00 | 0.00 | 0.00 | 71 | 868.1 |
| 20260506232619 | 9 | 172 | 38.6 | 61.2 | 0.00 | 0.00 | 0.00 | 71 | 868.1 |
| 20260506232419 | 9 | 175 | 37.0 | 61.2 | 0.00 | 0.00 | 0.00 | 71 | 868.1 |
| 20260506232219 | 9 | 172 | 32.2 | 48.3 | 0.00 | 0.00 | 0.00 | 71 | 868.2 |
| 20260506232019 | 9 | 168 | 30.6 | 41.8 | 0.00 | 0.00 | 0.00 | 70 | 868.2 |
| 20260506231819 | 9 | 166 | 30.6 | 41.8 | 0.00 | 0.00 | 0.00 | 70 | 868.2 |
| 20260506231619 | 9 | 158 | 32.2 | 45.1 | 0.00 | 0.00 | 0.00 | 70 | 868.2 |
| 20260506231419 | 9 | 169 | 33.8 | 46.7 | 0.00 | 0.00 | 0.00 | 70 | 868.2 |
| 20260506231219 | 9 | 177 | 35.4 | 49.9 | 0.00 | 0.00 | 0.00 | 70 | 868.3 |
| 20260506231019 | 9 | 170 | 25.7 | 40.2 | 0.00 | 0.00 | 0.00 | 70 | 868.4 |
| 20260506230818 | 9 | 167 | 22.5 | 29.0 | 0.00 | 0.00 | 0.00 | 70 | 868.4 |
| 20260506230618 | 9 | 160 | 20.9 | 29.0 | 0.00 | 0.00 | 0.00 | 70 | 868.4 |
| 20260506230418 | 9 | 160 | 24.1 | 32.2 | 0.00 | 0.00 | 0.00 | 70 | 868.4 |
| 20260506230218 | 9 | 163 | 24.1 | 32.2 | 0.00 | 0.00 | 0.00 | 70 | 868.4 |
| 20260506230018 | 9 | 158 | 19.3 | 30.6 | 0.00 | 0.00 | 0.00 | 70 | 868.4 |
| 20260506225817 | 9 | 157 | 27.4 | 35.4 | 0.00 | 0.00 | 0.00 | 70 | 868.3 |
| 20260506225617 | 9 | 162 | 32.2 | 46.7 | 0.00 | 0.00 | 0.00 | 70 | 868.1 |
| 20260506225417 | 9 | 167 | 38.6 | 56.3 | 0.00 | 0.00 | 0.00 | 70 | 868.1 |
| 20260506225218 | 9 | 164 | 33.8 | 53.1 | 0.00 | 0.00 | 0.00 | 70 | 868.2 |
| 20260506225018 | 9 | 159 | 35.4 | 61.2 | 0.00 | 0.00 | 0.00 | 70 | 868.2 |
| 20260506224816 | 9 | 156 | 29.0 | 41.8 | 0.00 | 0.00 | 0.00 | 70 | 868.2 |
| 20260506224616 | 9 | 154 | 27.4 | 43.5 | 0.00 | 0.00 | 0.00 | 70 | 868.1 |
| 20260506224416 | 9 | 159 | 33.8 | 56.3 | 0.00 | 0.00 | 0.00 | 69 | 868.1 |
| 20260506224216 | 9 | 160 | 30.6 | 54.7 | 0.00 | 0.00 | 0.00 | 70 | 868.2 |
| 20260506224016 | 9 | 154 | 33.8 | 54.7 | 0.00 | 0.00 | 0.00 | 69 | 868.2 |
| 20260506223816 | 9 | 161 | 33.8 | 49.9 | 0.00 | 0.00 | 0.00 | 69 | 868.2 |
| 20260506223616 | 9 | 159 | 32.2 | 48.3 | 0.00 | 0.00 | 0.00 | 69 | 868.2 |
| 20260506223414 | 9 | 156 | 27.4 | 45.1 | 0.00 | 0.00 | 0.00 | 69 | 868.2 |
| 20260506223214 | 10 | 164 | 29.0 | 54.7 | 0.00 | 0.00 | 0.00 | 69 | 868.1 |
| 20260506223014 | 10 | 157 | 32.2 | 45.1 | 0.00 | 0.00 | 0.00 | 69 | 868.1 |
| 20260506222812 | 10 | 161 | 32.2 | 45.1 | 0.00 | 0.00 | 0.00 | 69 | 868.2 |
| 20260506222612 | 10 | 168 | 32.2 | 43.5 | 0.00 | 0.00 | 0.00 | 69 | 868.3 |
| 20260506222412 | 10 | 171 | 27.4 | 40.2 | 0.00 | 0.00 | 0.00 | 69 | 868.3 |
| 20260506222212 | 10 | 168 | 32.2 | 64.4 | 0.00 | 0.00 | 0.00 | 69 | 868.3 |
| 20260506222012 | 10 | 168 | 37.0 | 64.4 | 0.00 | 0.00 | 0.00 | 69 | 868.3 |
| 20260506221812 | 10 | 162 | 30.6 | 48.3 | 0.00 | 0.00 | 0.00 | 69 | 868.3 |
| 20260506221612 | 10 | 155 | 29.0 | 45.1 | 0.00 | 0.00 | 0.00 | 69 | 868.3 |
| 20260506221412 | 10 | 160 | 27.4 | 43.5 | 0.00 | 0.00 | 0.00 | 69 | 868.3 |
| 20260506221212 | 10 | 153 | 32.2 | 46.7 | 0.00 | 0.00 | 0.00 | 69 | 868.2 |
| 20260506221012 | 10 | 159 | 37.0 | 57.9 | 0.00 | 0.00 | 0.00 | 68 | 868.2 |
| 20260506220801 | 10 | 158 | 35.4 | 57.9 | 0.00 | 0.00 | 0.00 | 68 | 868.2 |
| 20260506220601 | 10 | 158 | 33.8 | 49.9 | 0.00 | 0.00 | 0.00 | 68 | 868.3 |
| 20260506220401 | 10 | 153 | 32.2 | 49.9 | 0.00 | 0.00 | 0.00 | 68 | 868.3 |
| 20260506220201 | 10 | 154 | 33.8 | 46.7 | 0.00 | 0.00 | 0.00 | 68 | 868.2 |
| 20260506220001 | 10 | 157 | 37.0 | 62.8 | 0.00 | 0.00 | 0.00 | 68 | 868.2 |
| 20260506215801 | 10 | 160 | 32.2 | 53.1 | 0.00 | 0.00 | 0.00 | 68 | 868.2 |
| 20260506215601 | 10 | 158 | 41.8 | 69.2 | 0.00 | 0.00 | 0.00 | 68 | 868.2 |
| 20260506215401 | 10 | 150 | 37.0 | 69.2 | 0.00 | 0.00 | 0.00 | 68 | 868.2 |
| 20260506215201 | 10 | 150 | 32.2 | 48.3 | 0.00 | 0.00 | 0.00 | 68 | 868.3 |
| 20260506215001 | 10 | 149 | 32.2 | 45.1 | 0.00 | 0.00 | 0.00 | 68 | 868.3 |
| 20260506214759 | 10 | 152 | 32.2 | 48.3 | 0.00 | 0.00 | 0.00 | 68 | 868.3 |
| 20260506214559 | 10 | 156 | 30.6 | 48.3 | 0.00 | 0.00 | 0.00 | 68 | 868.4 |
| 20260506214359 | 10 | 156 | 25.7 | 45.1 | 0.00 | 0.00 | 0.00 | 68 | 868.4 |
| 20260506214159 | 10 | 154 | 27.4 | 37.0 | 0.00 | 0.00 | 0.00 | 68 | 868.4 |
| 20260506213959 | 10 | 155 | 29.0 | 45.1 | 0.00 | 0.00 | 0.00 | 68 | 868.4 |
| 20260506213759 | 10 | 152 | 24.1 | 41.8 | 0.00 | 0.00 | 0.00 | 68 | 868.4 |
| 20260506213559 | 10 | 159 | 29.0 | 46.7 | 0.00 | 0.00 | 0.00 | 68 | 868.4 |
| 20260506213359 | 10 | 161 | 32.2 | 51.5 | 0.00 | 0.00 | 0.00 | 67 | 868.4 |
| 20260506213159 | 10 | 161 | 27.4 | 41.8 | 0.00 | 0.00 | 0.00 | 67 | 868.3 |
| 20260506212959 | 10 | 167 | 27.4 | 41.8 | 0.00 | 0.00 | 0.00 | 67 | 868.3 |
| 20260506212757 | 10 | 171 | 22.5 | 37.0 | 0.00 | 0.00 | 0.00 | 67 | 868.4 |
| 20260506212555 | 10 | 169 | 24.1 | 38.6 | 0.00 | 0.00 | 0.00 | 67 | 868.4 |
| 20260506212355 | 10 | 168 | 29.0 | 46.7 | 0.00 | 0.00 | 0.00 | 67 | 868.4 |
| 20260506212155 | 10 | 167 | 32.2 | 48.3 | 0.00 | 0.00 | 0.00 | 67 | 868.4 |
| 20260506211955 | 10 | 165 | 32.2 | 48.3 | 0.00 | 0.00 | 0.00 | 67 | 868.4 |
| 20260506211755 | 10 | 175 | 30.6 | 43.5 | 0.00 | 0.00 | 0.00 | 67 | 868.5 |
| 20260506211556 | 10 | 177 | 27.4 | 38.6 | 0.00 | 0.00 | 0.00 | 67 | 868.5 |
| 20260506211355 | 10 | 164 | 29.0 | 46.7 | 0.00 | 0.00 | 0.00 | 67 | 868.4 |
| 20260506211156 | 10 | 160 | 29.0 | 46.7 | 0.00 | 0.00 | 0.00 | 67 | 868.4 |
| 20260506210956 | 10 | 166 | 29.0 | 45.1 | 0.00 | 0.00 | 0.00 | 67 | 868.4 |
| 20260506210754 | 10 | 167 | 24.1 | 41.8 | 0.00 | 0.00 | 0.00 | 67 | 868.3 |
| 20260506210554 | 10 | 162 | 32.2 | 48.3 | 0.00 | 0.00 | 0.00 | 67 | 868.2 |
| 20260506210354 | 10 | 169 | 38.6 | 51.5 | 0.00 | 0.00 | 0.00 | 67 | 868.2 |
| 20260506210154 | 10 | 170 | 30.6 | 51.5 | 0.00 | 0.00 | 0.00 | 67 | 868.2 |
| 20260506205954 | 10 | 159 | 30.6 | 45.1 | 0.00 | 0.00 | 0.00 | 67 | 868.2 |
| 20260506205754 | 10 | 157 | 30.6 | 46.7 | 0.00 | 0.00 | 0.00 | 66 | 868.2 |
| 20260506205554 | 10 | 156 | 29.0 | 43.5 | 0.00 | 0.00 | 0.00 | 66 | 868.2 |
| 20260506205354 | 10 | 164 | 32.2 | 46.7 | 0.00 | 0.00 | 0.00 | 66 | 868.2 |
| 20260506205154 | 10 | 159 | 32.2 | 48.3 | 0.00 | 0.00 | 0.00 | 66 | 868.2 |
| 20260506204954 | 10 | 154 | 32.2 | 46.7 | 0.00 | 0.00 | 0.00 | 66 | 868.1 |
| 20260506204752 | 10 | 161 | 38.6 | 61.2 | 0.00 | 0.00 | 0.00 | 66 | 868.0 |
| 20260506204552 | 10 | 164 | 38.6 | 61.2 | 0.00 | 0.00 | 0.00 | 66 | 868.1 |
| 20260506204352 | 10 | 158 | 37.0 | 57.9 | 0.00 | 0.00 | 0.00 | 66 | 868.0 |
| 20260506204152 | 10 | 158 | 38.6 | 57.9 | 0.00 | 0.00 | 0.00 | 66 | 867.9 |
| 20260506203952 | 10 | 163 | 37.0 | 61.2 | 0.00 | 0.00 | 0.00 | 66 | 868.0 |
| 20260506203752 | 10 | 158 | 33.8 | 69.2 | 0.00 | 0.00 | 0.00 | 66 | 868.1 |
| 20260506203552 | 10 | 156 | 33.8 | 69.2 | 0.00 | 0.00 | 0.00 | 66 | 868.1 |
| 20260506203352 | 10 | 160 | 33.8 | 46.7 | 0.00 | 0.00 | 0.00 | 66 | 868.1 |
| 20260506203152 | 10 | 159 | 33.8 | 45.1 | 0.00 | 0.00 | 0.00 | 65 | 868.1 |
| 20260506202952 | 10 | 157 | 35.4 | 57.9 | 0.00 | 0.00 | 0.00 | 65 | 868.1 |
| 20260506202750 | 11 | 156 | 32.2 | 43.5 | 0.00 | 0.00 | 0.00 | 65 | 868.1 |
| 20260506202550 | 11 | 157 | 32.2 | 45.1 | 0.00 | 0.00 | 0.00 | 65 | 868.1 |
| 20260506202350 | 11 | 158 | 35.4 | 54.7 | 0.00 | 0.00 | 0.00 | 65 | 868.1 |
| 20260506202150 | 11 | 164 | 32.2 | 48.3 | 0.00 | 0.00 | 0.00 | 65 | 868.2 |
| 20260506201950 | 11 | 157 | 29.0 | 43.5 | 0.00 | 0.00 | 0.00 | 65 | 868.2 |
| 20260506201748 | 11 | 162 | 35.4 | 43.5 | 0.00 | 0.00 | 0.00 | 65 | 868.2 |
| 20260506201548 | 11 | 160 | 38.6 | 56.3 | 0.00 | 0.00 | 0.00 | 65 | 868.2 |
| 20260506201348 | 11 | 154 | 33.8 | 56.3 | 0.00 | 0.00 | 0.00 | 65 | 868.2 |
| 20260506201148 | 11 | 154 | 32.2 | 61.2 | 0.00 | 0.00 | 0.00 | 65 | 868.2 |
| 20260506200948 | 11 | 159 | 32.2 | 49.9 | 0.00 | 0.00 | 0.00 | 64 | 868.3 |
| 20260506200746 | 11 | 163 | 30.6 | 45.1 | 0.00 | 0.00 | 0.00 | 65 | 868.3 |
| 20260506200546 | 11 | 160 | 35.4 | 53.1 | 0.00 | 0.00 | 0.00 | 65 | 868.3 |
| 20260506200346 | 11 | 161 | 35.4 | 53.1 | 0.00 | 0.00 | 0.00 | 64 | 868.4 |
| 20260506200146 | 11 | 144 | 25.7 | 40.2 | 0.00 | 0.00 | 0.00 | 64 | 868.4 |
| 20260506195946 | 11 | 145 | 30.6 | 61.2 | 0.00 | 0.00 | 0.00 | 64 | 868.4 |
| 20260506195746 | 11 | 150 | 30.6 | 46.7 | 0.00 | 0.00 | 0.00 | 64 | 868.3 |
| 20260506195546 | 11 | 158 | 29.0 | 46.7 | 0.00 | 0.00 | 0.00 | 64 | 868.4 |
| 20260506195346 | 11 | 152 | 25.7 | 37.0 | 0.00 | 0.00 | 0.00 | 64 | 868.5 |
| 20260506195147 | 11 | 146 | 27.4 | 37.0 | 0.00 | 0.00 | 0.00 | 64 | 868.5 |
| 20260506194946 | 11 | 153 | 29.0 | 61.2 | 0.00 | 0.00 | 0.00 | 64 | 868.5 |
| 20260506194745 | 11 | 154 | 29.0 | 43.5 | 0.00 | 0.00 | 0.00 | 64 | 868.5 |
| 20260506194545 | 11 | 152 | 32.2 | 53.1 | 0.00 | 0.00 | 0.00 | 64 | 868.5 |
| 20260506194345 | 11 | 149 | 29.0 | 49.9 | 0.00 | 0.00 | 0.00 | 64 | 868.5 |
| 20260506194145 | 11 | 154 | 27.4 | 40.2 | 0.00 | 0.00 | 0.00 | 64 | 868.6 |
| 20260506193945 | 11 | 155 | 25.7 | 38.6 | 0.00 | 0.00 | 0.00 | 64 | 868.6 |
| 20260506193735 | 11 | 159 | 27.4 | 41.8 | 0.00 | 0.00 | 0.00 | 63 | 868.6 |
| 20260506193535 | 11 | 149 | 25.7 | 41.8 | 0.00 | 0.00 | 0.00 | 63 | 868.7 |
| 20260506193336 | 11 | 153 | 25.7 | 40.2 | 0.00 | 0.00 | 0.00 | 63 | 868.7 |
| 20260506193136 | 11 | 151 | 22.5 | 35.4 | 0.00 | 0.00 | 0.00 | 63 | 868.7 |
| 20260506192936 | 11 | 145 | 19.3 | 40.2 | 0.00 | 0.00 | 0.00 | 63 | 868.7 |
| 20260506192733 | 11 | 143 | 20.9 | 40.2 | 0.00 | 0.00 | 0.00 | 63 | 868.7 |
| 20260506192533 | 11 | 153 | 25.7 | 40.2 | 0.00 | 0.00 | 0.00 | 63 | 868.7 |
| 20260506192333 | 11 | 148 | 17.7 | 25.7 | 0.00 | 0.00 | 0.00 | 63 | 868.7 |
| 20260506192133 | 11 | 148 | 19.3 | 27.4 | 0.00 | 0.00 | 0.00 | 63 | 868.7 |
| 20260506191933 | 11 | 145 | 19.3 | 27.4 | 0.00 | 0.00 | 0.00 | 63 | 868.7 |
| 20260506191733 | 11 | 130 | 17.7 | 25.7 | 0.00 | 0.00 | 0.00 | 63 | 868.7 |
| 20260506191534 | 11 | 134 | 17.7 | 25.7 | 0.00 | 0.00 | 0.00 | 63 | 868.7 |
| 20260506191333 | 11 | 133 | 17.7 | 24.1 | 0.00 | 0.00 | 0.00 | 63 | 868.7 |
| 20260506191133 | 11 | 136 | 17.7 | 25.7 | 0.00 | 0.00 | 0.00 | 63 | 868.7 |
| 20260506190931 | 11 | 137 | 20.9 | 35.4 | 0.00 | 0.00 | 0.00 | 63 | 868.8 |
| 20260506190729 | 11 | 131 | 19.3 | 29.0 | 0.00 | 0.00 | 0.00 | 63 | 868.8 |
| 20260506190530 | 11 | 128 | 16.1 | 25.7 | 0.00 | 0.00 | 0.00 | 63 | 868.8 |
| 20260506190330 | 11 | 135 | 16.1 | 32.2 | 0.00 | 0.00 | 0.00 | 63 | 868.8 |
| 20260506190129 | 11 | 124 | 11.3 | 24.1 | 0.00 | 0.00 | 0.00 | 63 | 868.8 |
| 20260506185929 | 11 | 115 | 17.7 | 25.7 | 0.00 | 0.00 | 0.00 | 63 | 868.7 |
| 20260506185729 | 11 | 123 | 19.3 | 30.6 | 0.00 | 0.00 | 0.00 | 63 | 868.7 |
| 20260506185530 | 11 | 140 | 17.7 | 25.7 | 0.00 | 0.00 | 0.00 | 63 | 868.7 |
| 20260506185329 | 11 | 134 | 16.1 | 22.5 | 0.00 | 0.00 | 0.00 | 63 | 868.8 |
| 20260506185129 | 11 | 125 | 17.7 | 24.1 | 0.00 | 0.00 | 0.00 | 62 | 868.8 |
| 20260506184930 | 11 | 122 | 17.7 | 32.2 | 0.00 | 0.00 | 0.00 | 62 | 868.8 |
| 20260506184728 | 11 | 132 | 19.3 | 32.2 | 0.00 | 0.00 | 0.00 | 62 | 868.7 |
| 20260506184528 | 11 | 139 | 19.3 | 32.2 | 0.00 | 0.00 | 0.00 | 62 | 868.7 |
| 20260506184328 | 11 | 144 | 22.5 | 35.4 | 0.00 | 0.00 | 0.00 | 62 | 868.6 |
| 20260506184128 | 11 | 142 | 25.7 | 38.6 | 0.00 | 0.00 | 0.00 | 62 | 868.6 |
| 20260506183928 | 11 | 137 | 22.5 | 35.4 | 0.00 | 0.00 | 0.00 | 62 | 868.7 |
| 20260506183726 | 11 | 126 | 22.5 | 32.2 | 0.00 | 0.00 | 0.00 | 62 | 868.6 |
| 20260506183526 | 11 | 134 | 24.1 | 37.0 | 0.00 | 0.00 | 0.00 | 62 | 868.7 |
| 20260506183326 | 11 | 128 | 17.7 | 25.7 | 0.00 | 0.00 | 0.00 | 62 | 868.6 |
| 20260506183126 | 11 | 127 | 17.7 | 27.4 | 0.00 | 0.00 | 0.00 | 62 | 868.6 |
| 20260506182926 | 11 | 129 | 19.3 | 35.4 | 0.00 | 0.00 | 0.00 | 62 | 868.6 |
| 20260506182724 | 11 | 139 | 20.9 | 35.4 | 0.00 | 0.00 | 0.00 | 62 | 868.6 |
| 20260506182524 | 11 | 142 | 19.3 | 30.6 | 0.00 | 0.00 | 0.00 | 62 | 868.7 |
| 20260506182324 | 11 | 146 | 25.7 | 38.6 | 0.00 | 0.00 | 0.00 | 62 | 868.6 |
| 20260506182124 | 11 | 141 | 25.7 | 37.0 | 0.00 | 0.00 | 0.00 | 62 | 868.6 |
| 20260506181924 | 11 | 140 | 25.7 | 40.2 | 0.00 | 0.00 | 0.00 | 62 | 868.6 |
| 20260506181724 | 11 | 144 | 22.5 | 32.2 | 0.00 | 0.00 | 0.00 | 62 | 868.6 |
| 20260506181524 | 11 | 139 | 22.5 | 33.8 | 0.00 | 0.00 | 0.00 | 62 | 868.6 |
| 20260506181324 | 11 | 145 | 22.5 | 35.4 | 0.00 | 0.00 | 0.00 | 62 | 868.6 |
| 20260506181124 | 11 | 156 | 20.9 | 35.4 | 0.00 | 0.00 | 0.00 | 62 | 868.6 |
| 20260506180924 | 11 | 146 | 12.9 | 29.0 | 0.00 | 0.00 | 0.00 | 62 | 868.7 |
| 20260506180722 | 11 | 134 | 16.1 | 22.5 | 0.00 | 0.00 | 0.00 | 61 | 868.8 |
| 20260506180522 | 12 | 130 | 12.9 | 22.5 | 0.00 | 0.00 | 0.00 | 61 | 868.8 |
| 20260506180322 | 12 | 120 | 14.5 | 20.9 | 0.00 | 0.00 | 0.00 | 61 | 868.8 |
| 20260506180120 | 12 | 126 | 19.3 | 30.6 | 0.00 | 0.00 | 0.00 | 61 | 868.7 |
| 20260506175920 | 12 | 133 | 17.7 | 29.0 | 0.00 | 0.00 | 0.00 | 61 | 868.8 |
| 20260506175720 | 12 | 135 | 19.3 | 29.0 | 0.00 | 0.00 | 0.00 | 61 | 868.8 |
| 20260506175520 | 12 | 115 | 16.1 | 29.0 | 0.00 | 0.00 | 0.00 | 61 | 868.9 |
| 20260506175320 | 12 | 107 | 12.9 | 20.9 | 0.00 | 0.00 | 0.00 | 61 | 868.9 |
| 20260506175120 | 12 | 131 | 19.3 | 29.0 | 0.00 | 0.00 | 0.00 | 61 | 868.9 |
| 20260506174920 | 12 | 140 | 12.9 | 25.7 | 0.00 | 0.00 | 0.00 | 61 | 868.9 |
| 20260506174718 | 12 | 147 | 12.9 | 22.5 | 0.00 | 0.00 | 0.00 | 61 | 869.0 |
| 20260506174518 | 12 | 110 | 14.5 | 22.5 | 0.00 | 0.00 | 0.00 | 61 | 869.0 |
| 20260506174319 | 12 | 122 | 14.5 | 29.0 | 0.00 | 0.00 | 0.00 | 61 | 869.0 |
| 20260506174118 | 12 | 120 | 12.9 | 19.3 | 0.00 | 0.00 | 0.00 | 61 | 868.9 |
| 20260506173918 | 12 | 133 | 14.5 | 25.7 | 0.00 | 0.00 | 0.00 | 61 | 868.9 |
| 20260506173718 | 12 | 119 | 9.7 | 25.7 | 0.00 | 0.00 | 0.00 | 61 | 869.0 |
| 20260506173518 | 12 | 114 | 14.5 | 27.4 | 0.00 | 0.00 | 0.00 | 61 | 868.9 |
| 20260506173318 | 12 | 119 | 14.5 | 27.4 | 0.00 | 0.00 | 0.00 | 61 | 869.0 |
| 20260506173118 | 12 | 105 | 14.5 | 22.5 | 0.00 | 0.00 | 0.00 | 61 | 869.0 |
| 20260506172918 | 12 | 118 | 17.7 | 22.5 | 0.00 | 0.00 | 0.00 | 60 | 868.9 |
| 20260506172716 | 12 | 136 | 19.3 | 32.2 | 0.00 | 0.00 | 0.00 | 60 | 869.0 |
| 20260506172516 | 12 | 135 | 11.3 | 19.3 | 0.00 | 0.00 | 0.00 | 60 | 869.0 |
| 20260506172316 | 12 | 138 | 14.5 | 25.7 | 0.00 | 0.00 | 0.00 | 60 | 869.0 |
| 20260506172116 | 12 | 142 | 16.1 | 25.7 | 0.00 | 0.00 | 0.00 | 60 | 869.0 |
| 20260506171916 | 12 | 139 | 16.1 | 30.6 | 0.00 | 0.00 | 0.00 | 60 | 869.0 |
| 20260506171717 | 12 | 145 | 11.3 | 22.5 | 0.00 | 0.00 | 0.00 | 60 | 869.0 |
| 20260506171517 | 12 | 131 | 9.7 | 20.9 | 0.00 | 0.00 | 0.00 | 60 | 869.0 |
| 20260506171317 | 12 | 128 | 12.9 | 20.9 | 0.00 | 0.00 | 0.00 | 60 | 869.0 |
| 20260506171117 | 12 | 135 | 12.9 | 20.9 | 0.00 | 0.00 | 0.00 | 60 | 869.1 |
| 20260506170917 | 12 | 142 | 16.1 | 32.2 | 0.00 | 0.00 | 0.00 | 60 | 869.0 |
| 20260506170705 | 12 | 142 | 19.3 | 32.2 | 0.00 | 0.00 | 0.00 | 60 | 869.0 |
| 20260506170505 | 12 | 151 | 24.1 | 48.3 | 0.00 | 0.00 | 0.00 | 60 | 869.0 |
| 20260506170305 | 13 | 151 | 19.3 | 48.3 | 0.00 | 0.00 | 0.00 | 60 | 869.1 |
| 20260506170106 | 13 | 143 | 17.7 | 29.0 | 0.00 | 0.00 | 0.00 | 60 | 869.1 |
| 20260506165906 | 13 | 143 | 20.9 | 33.8 | 0.00 | 0.00 | 0.00 | 60 | 869.1 |
| 20260506165705 | 13 | 146 | 19.3 | 33.8 | 0.00 | 0.00 | 0.00 | 60 | 869.1 |
| 20260506165505 | 13 | 159 | 16.1 | 24.1 | 0.00 | 0.00 | 0.00 | 60 | 869.1 |
| 20260506165305 | 12 | 154 | 16.1 | 29.0 | 0.00 | 0.00 | 0.00 | 60 | 869.0 |
| 20260506165104 | 13 | 151 | 24.1 | 32.2 | 0.00 | 0.00 | 0.00 | 60 | 869.0 |
| 20260506164903 | 13 | 153 | 24.1 | 35.4 | 0.00 | 0.00 | 0.00 | 60 | 869.0 |
| 20260506164701 | 13 | 159 | 24.1 | 35.4 | 0.00 | 0.00 | 0.00 | 60 | 869.0 |
| 20260506164502 | 13 | 162 | 24.1 | 35.4 | 0.00 | 0.00 | 0.00 | 60 | 869.0 |
| 20260506164301 | 13 | 158 | 24.1 | 32.2 | 0.00 | 0.00 | 0.00 | 60 | 869.0 |
| 20260506164102 | 13 | 158 | 25.7 | 35.4 | 0.00 | 0.00 | 0.00 | 60 | 868.9 |
| 20260506163901 | 13 | 153 | 22.5 | 40.2 | 0.00 | 0.00 | 0.00 | 60 | 868.9 |
| 20260506163701 | 13 | 159 | 24.1 | 45.1 | 0.00 | 0.00 | 0.00 | 60 | 868.9 |
| 20260506163501 | 13 | 158 | 24.1 | 45.1 | 0.00 | 0.00 | 0.00 | 60 | 869.0 |
| 20260506163301 | 13 | 150 | 20.9 | 33.8 | 0.00 | 0.00 | 0.00 | 60 | 869.1 |
| 20260506163101 | 13 | 151 | 19.3 | 27.4 | 0.00 | 0.00 | 0.00 | 60 | 869.1 |
| 20260506162901 | 13 | 149 | 16.1 | 27.4 | 0.00 | 0.00 | 0.00 | 60 | 869.1 |
| 20260506162659 | 13 | 165 | 19.3 | 32.2 | 0.00 | 0.00 | 0.00 | 60 | 869.1 |
| 20260506162523 | 13 | 169 | 17.7 | 22.5 | 0.00 | 0.00 | 0.00 | 60 | 869.3 |
| 20260506162459 | 13 | 173 | 25.7 | 41.8 | 0.00 | 0.00 | 0.00 | 60 | 869.1 |
| 20260506162259 | 13 | 177 | 25.7 | 41.8 | 0.00 | 0.00 | 0.00 | 60 | 869.2 |
| 20260506162059 | 13 | 173 | 19.3 | 30.6 | 0.00 | 0.00 | 0.00 | 60 | 869.3 |
| 20260506161859 | 13 | 169 | 17.7 | 22.5 | 0.00 | 0.00 | 0.00 | 60 | 869.3 |
| 20260506161659 | 13 | 166 | 19.3 | 32.2 | 0.00 | 0.00 | 0.00 | 60 | 869.3 |
| 20260506161459 | 13 | 161 | 19.3 | 32.2 | 0.00 | 0.00 | 0.00 | 60 | 869.3 |
| 20260506161259 | 13 | 173 | 16.1 | 25.7 | 0.00 | 0.00 | 0.00 | 59 | 869.3 |
| 20260506161059 | 13 | 172 | 19.3 | 30.6 | 0.00 | 0.00 | 0.00 | 59 | 869.4 |
| 20260506160859 | 13 | 168 | 22.5 | 33.8 | 0.00 | 0.00 | 0.00 | 59 | 869.4 |
| 20260506160657 | 13 | 165 | 16.1 | 33.8 | 0.00 | 0.00 | 0.00 | 59 | 869.4 |
| 20260506160457 | 13 | 160 | 17.7 | 29.0 | 0.00 | 0.00 | 0.00 | 59 | 869.4 |
| 20260506160257 | 14 | 165 | 19.3 | 29.0 | 0.00 | 0.00 | 0.00 | 59 | 869.3 |
| 20260506160057 | 14 | 169 | 22.5 | 33.8 | 0.00 | 0.00 | 0.00 | 59 | 869.3 |
| 20260506155857 | 14 | 161 | 19.3 | 29.0 | 0.00 | 0.00 | 0.00 | 59 | 869.4 |
| 20260506155657 | 14 | 168 | 20.9 | 37.0 | 0.00 | 0.00 | 0.00 | 59 | 869.4 |
| 20260506155457 | 15 | 164 | 22.5 | 33.8 | 0.00 | 0.00 | 0.00 | 59 | 869.4 |
| 20260506155257 | 15 | 164 | 22.5 | 33.8 | 0.00 | 0.00 | 0.00 | 59 | 869.4 |
| 20260506155057 | 15 | 168 | 22.5 | 30.6 | 0.00 | 0.00 | 0.00 | 59 | 869.4 |
| 20260506154858 | 15 | 166 | 25.7 | 33.8 | 0.00 | 0.00 | 0.00 | 59 | 869.4 |
| 20260506154656 | 15 | 155 | 22.5 | 32.2 | 0.00 | 0.00 | 0.00 | 59 | 869.4 |
| 20260506154454 | 15 | 155 | 16.1 | 32.2 | 0.00 | 0.00 | 0.00 | 59 | 869.5 |
| 20260506154254 | 15 | 166 | 16.1 | 22.5 | 0.00 | 0.00 | 0.00 | 59 | 869.5 |
| 20260506154054 | 15 | 172 | 12.9 | 20.9 | 0.00 | 0.00 | 0.00 | 59 | 869.5 |
| 20260506153854 | 15 | 175 | 14.5 | 24.1 | 0.00 | 0.00 | 0.00 | 59 | 869.5 |
| 20260506153654 | 15 | 171 | 12.9 | 24.1 | 0.00 | 0.00 | 0.00 | 59 | 869.5 |
| 20260506153453 | 14 | 166 | 12.9 | 22.5 | 0.00 | 0.00 | 0.00 | 60 | 869.6 |
| 20260506153253 | 14 | 169 | 14.5 | 19.3 | 0.00 | 0.00 | 0.00 | 60 | 869.6 |
| 20260506153053 | 14 | 172 | 16.1 | 24.1 | 0.00 | 0.00 | 0.00 | 60 | 869.6 |
| 20260506152853 | 14 | 180 | 17.7 | 24.1 | 0.00 | 0.00 | 0.00 | 60 | 869.6 |
| 20260506152651 | 14 | 178 | 14.5 | 24.1 | 0.00 | 0.00 | 0.00 | 60 | 869.6 |
| 20260506152451 | 14 | 177 | 16.1 | 24.1 | 0.00 | 0.00 | 0.00 | 60 | 869.6 |
| 20260506152251 | 14 | 175 | 16.1 | 24.1 | 0.00 | 0.00 | 0.00 | 60 | 869.7 |
| 20260506152051 | 14 | 167 | 12.9 | 19.3 | 0.00 | 0.00 | 0.00 | 60 | 869.8 |
| 20260506151851 | 14 | 175 | 12.9 | 20.9 | 0.00 | 0.00 | 0.00 | 59 | 869.8 |
| 20260506151651 | 14 | 173 | 14.5 | 20.9 | 0.00 | 0.00 | 0.00 | 59 | 869.8 |
| 20260506151451 | 14 | 172 | 17.7 | 25.7 | 0.00 | 0.00 | 0.00 | 59 | 869.8 |
| 20260506151250 | 14 | 174 | 14.5 | 20.9 | 0.00 | 0.00 | 0.00 | 59 | 869.8 |
| 20260506151050 | 14 | 177 | 16.1 | 25.7 | 0.00 | 0.00 | 0.00 | 59 | 869.8 |
| 20260506150850 | 14 | 166 | 14.5 | 25.7 | 0.00 | 0.00 | 0.00 | 59 | 869.8 |
| 20260506150649 | 14 | 166 | 11.3 | 19.3 | 0.00 | 0.00 | 0.00 | 59 | 869.8 |
| 20260506150449 | 14 | 171 | 14.5 | 24.1 | 0.00 | 0.00 | 0.00 | 59 | 869.8 |
| 20260506150249 | 14 | 167 | 20.9 | 32.2 | 0.00 | 0.00 | 0.00 | 59 | 869.8 |
| 20260506150049 | 14 | 172 | 24.1 | 37.0 | 0.00 | 0.00 | 0.00 | 59 | 869.8 |
| 20260506145849 | 14 | 171 | 25.7 | 40.2 | 0.00 | 0.00 | 0.00 | 59 | 869.7 |
| 20260506145649 | 14 | 173 | 24.1 | 40.2 | 0.00 | 0.00 | 0.00 | 59 | 869.8 |
| 20260506145449 | 14 | 171 | 20.9 | 40.2 | 0.00 | 0.00 | 0.00 | 59 | 869.8 |
| 20260506145248 | 14 | 178 | 20.9 | 30.6 | 0.00 | 0.00 | 0.00 | 59 | 869.9 |
| 20260506145048 | 14 | 174 | 19.3 | 29.0 | 0.00 | 0.00 | 0.00 | 59 | 869.9 |
| 20260506144848 | 14 | 175 | 17.7 | 27.4 | 0.00 | 0.00 | 0.00 | 59 | 869.9 |
| 20260506144646 | 14 | 176 | 16.1 | 24.1 | 0.00 | 0.00 | 0.00 | 59 | 870.0 |
| 20260506144446 | 14 | 178 | 14.5 | 20.9 | 0.00 | 0.00 | 0.00 | 59 | 869.9 |
| 20260506144247 | 14 | 172 | 17.7 | 29.0 | 0.00 | 0.00 | 0.00 | 59 | 870.0 |
| 20260506144046 | 14 | 170 | 16.1 | 22.5 | 0.00 | 0.00 | 0.00 | 59 | 869.9 |
| 20260506143846 | 14 | 172 | 19.3 | 30.6 | 0.00 | 0.00 | 0.00 | 59 | 869.9 |
| 20260506143635 | 14 | 179 | 19.3 | 30.6 | 0.00 | 0.00 | 0.00 | 58 | 869.9 |
| 20260506143435 | 15 | 177 | 19.3 | 27.4 | 0.00 | 0.00 | 0.00 | 58 | 869.9 |
| 20260506143235 | 15 | 177 | 17.7 | 27.4 | 0.00 | 0.00 | 0.00 | 58 | 869.9 |
| 20260506143035 | 15 | 176 | 19.3 | 33.8 | 0.00 | 0.00 | 0.00 | 58 | 870.0 |
| 20260506142835 | 15 | 193 | 17.7 | 33.8 | 0.00 | 0.00 | 0.00 | 58 | 870.0 |
| 20260506142633 | 15 | 178 | 16.1 | 29.0 | 0.00 | 0.00 | 0.00 | 58 | 870.0 |
| 20260506142433 | 15 | 168 | 8.0 | 29.0 | 0.00 | 0.00 | 0.00 | 58 | 870.1 |
| 20260506142233 | 15 | 168 | 8.0 | 12.9 | 0.00 | 0.00 | 0.00 | 58 | 870.1 |
| 20260506142033 | 15 | 169 | 11.3 | 16.1 | 0.00 | 0.00 | 0.00 | 58 | 870.0 |
| 20260506141833 | 15 | 200 | 9.7 | 16.1 | 0.00 | 0.00 | 0.00 | 58 | 870.0 |
| 20260506141633 | 15 | 203 | 11.3 | 22.5 | 0.00 | 0.00 | 0.00 | 58 | 870.0 |
| 20260506141433 | 15 | 172 | 11.3 | 22.5 | 0.00 | 0.00 | 0.00 | 58 | 870.0 |
| 20260506141233 | 15 | 165 | 16.1 | 22.5 | 0.00 | 0.00 | 0.00 | 58 | 870.0 |
| 20260506141033 | 15 | 184 | 14.5 | 22.5 | 0.00 | 0.00 | 0.00 | 58 | 870.0 |
| 20260506140833 | 15 | 195 | 9.7 | 19.3 | 0.00 | 0.00 | 0.00 | 58 | 870.0 |
| 20260506140631 | 15 | 191 | 9.7 | 14.5 | 0.00 | 0.00 | 0.00 | 58 | 870.0 |
| 20260506140431 | 15 | 180 | 11.3 | 17.7 | 0.00 | 0.00 | 0.00 | 58 | 870.0 |
| 20260506140232 | 16 | 172 | 9.7 | 17.7 | 0.00 | 0.00 | 0.00 | 58 | 870.0 |
| 20260506140031 | 16 | 175 | 11.3 | 19.3 | 0.00 | 0.00 | 0.00 | 57 | 870.0 |
| 20260506135831 | 16 | 169 | 14.5 | 24.1 | 0.00 | 0.00 | 0.00 | 57 | 870.0 |
| 20260506135631 | 16 | 182 | 19.3 | 32.2 | 0.00 | 0.00 | 0.00 | 57 | 869.9 |
| 20260506135431 | 16 | 178 | 19.3 | 32.2 | 0.00 | 0.00 | 0.00 | 57 | 869.9 |
| 20260506135231 | 16 | 175 | 19.3 | 30.6 | 0.00 | 0.00 | 0.00 | 57 | 870.0 |
| 20260506135031 | 15 | 169 | 19.3 | 25.7 | 0.00 | 0.00 | 0.00 | 57 | 870.0 |
| 20260506134831 | 15 | 161 | 16.1 | 25.7 | 0.00 | 0.00 | 0.00 | 57 | 870.0 |
| 20260506134711 | 15 | 161 | 12.9 | 20.9 | 0.00 | 0.00 | 0.00 | 58 | 870.0 |
| 20260506134629 | 15 | 161 | 12.9 | 20.9 | 0.00 | 0.00 | 0.00 | 58 | 870.0 |
| 20260506134429 | 15 | 189 | 12.9 | 19.3 | 0.00 | 0.00 | 0.00 | 58 | 870.0 |
| 20260506134229 | 16 | 181 | 14.5 | 20.9 | 0.00 | 0.00 | 0.00 | 57 | 870.0 |
| 20260506134029 | 16 | 185 | 8.0 | 17.7 | 0.00 | 0.00 | 0.00 | 57 | 870.0 |
| 20260506133829 | 16 | 194 | 12.9 | 25.7 | 0.00 | 0.00 | 0.00 | 57 | 870.0 |
| 20260506133629 | 16 | 186 | 11.3 | 19.3 | 0.00 | 0.00 | 0.00 | 57 | 870.1 |
| 20260506133429 | 16 | 190 | 16.1 | 35.4 | 0.00 | 0.00 | 0.00 | 57 | 870.0 |
| 20260506133229 | 16 | 197 | 17.7 | 35.4 | 0.00 | 0.00 | 0.00 | 57 | 870.0 |
| 20260506133029 | 16 | 205 | 17.7 | 29.0 | 0.00 | 0.00 | 0.00 | 57 | 870.0 |
| 20260506132827 | 16 | 210 | 16.1 | 29.0 | 0.00 | 0.00 | 0.00 | 57 | 870.0 |
| 20260506132625 | 16 | 162 | 11.3 | 27.4 | 0.00 | 0.00 | 0.00 | 58 | 870.0 |
| 20260506132425 | 16 | 172 | 9.7 | 20.9 | 0.00 | 0.00 | 0.00 | 57 | 870.0 |
| 20260506132225 | 16 | 196 | 16.1 | 27.4 | 0.00 | 0.00 | 0.00 | 57 | 870.0 |
| 20260506132025 | 16 | 211 | 12.9 | 25.7 | 0.00 | 0.00 | 0.00 | 57 | 870.0 |
| 20260506131825 | 16 | 196 | 11.3 | 20.9 | 0.00 | 0.00 | 0.00 | 57 | 870.0 |
| 20260506131625 | 16 | 182 | 11.3 | 20.9 | 0.00 | 0.00 | 0.00 | 57 | 870.0 |
| 20260506131425 | 16 | 199 | 9.7 | 16.1 | 0.00 | 0.00 | 0.00 | 58 | 870.0 |
| 20260506131225 | 16 | 211 | 9.7 | 20.9 | 0.00 | 0.00 | 0.00 | 57 | 870.0 |
| 20260506131025 | 16 | 207 | 14.5 | 27.4 | 0.00 | 0.00 | 0.00 | 58 | 869.9 |
| 20260506130825 | 16 | 184 | 12.9 | 29.0 | 0.00 | 0.00 | 0.00 | 58 | 869.9 |
| 20260506130623 | 16 | 157 | 9.7 | 22.5 | 0.00 | 0.00 | 0.00 | 58 | 869.9 |
| 20260506130423 | 16 | 180 | 11.3 | 19.3 | 0.00 | 0.00 | 0.00 | 58 | 870.0 |
| 20260506130223 | 16 | 196 | 11.3 | 19.3 | 0.00 | 0.00 | 0.00 | 58 | 870.0 |
| 20260506130023 | 16 | 163 | 11.3 | 19.3 | 0.00 | 0.00 | 0.00 | 58 | 870.0 |
| 20260506125823 | 15 | 138 | 11.3 | 17.7 | 0.00 | 0.00 | 0.00 | 58 | 870.0 |
| 20260506125621 | 15 | 168 | 8.0 | 16.1 | 0.00 | 0.00 | 0.00 | 58 | 870.1 |
| 20260506125421 | 15 | 173 | 14.5 | 22.5 | 0.00 | 0.00 | 0.00 | 58 | 870.1 |
| 20260506125221 | 15 | 166 | 22.5 | 37.0 | 0.00 | 0.00 | 0.00 | 58 | 870.1 |
| 20260506125021 | 16 | 166 | 22.5 | 37.0 | 0.00 | 0.00 | 0.00 | 58 | 870.1 |
| 20260506124821 | 16 | 174 | 20.9 | 29.0 | 0.00 | 0.00 | 0.00 | 58 | 870.1 |
| 20260506124619 | 16 | 177 | 22.5 | 29.0 | 0.00 | 0.00 | 0.00 | 58 | 870.1 |
| 20260506124419 | 16 | 178 | 22.5 | 32.2 | 0.00 | 0.00 | 0.00 | 58 | 870.1 |
| 20260506124220 | 16 | 176 | 17.7 | 32.2 | 0.00 | 0.00 | 0.00 | 58 | 870.2 |
| 20260506124019 | 16 | 181 | 9.7 | 20.9 | 0.00 | 0.00 | 0.00 | 58 | 870.2 |
| 20260506123819 | 15 | 205 | 8.0 | 17.7 | 0.00 | 0.00 | 0.00 | 58 | 870.2 |
| 20260506123619 | 15 | 184 | 11.3 | 17.7 | 0.00 | 0.00 | 0.00 | 59 | 870.2 |
| 20260506123419 | 15 | 175 | 12.9 | 19.3 | 0.00 | 0.00 | 0.00 | 59 | 870.2 |
| 20260506123219 | 15 | 188 | 14.5 | 25.7 | 0.00 | 0.00 | 0.00 | 59 | 870.2 |
| 20260506123019 | 15 | 196 | 16.1 | 30.6 | 0.00 | 0.00 | 0.00 | 59 | 870.2 |
| 20260506122819 | 15 | 189 | 16.1 | 30.6 | 0.00 | 0.00 | 0.00 | 59 | 870.2 |
| 20260506122617 | 15 | 190 | 17.7 | 25.7 | 0.00 | 0.00 | 0.00 | 59 | 870.2 |
| 20260506122417 | 15 | 184 | 19.3 | 29.0 | 0.00 | 0.00 | 0.00 | 58 | 870.2 |
| 20260506122218 | 15 | 188 | 17.7 | 22.5 | 0.00 | 0.00 | 0.00 | 58 | 870.2 |
| 20260506122015 | 15 | 190 | 16.1 | 29.0 | 0.00 | 0.00 | 0.00 | 58 | 870.2 |
| 20260506121815 | 16 | 188 | 19.3 | 29.0 | 0.00 | 0.00 | 0.00 | 58 | 870.2 |
| 20260506121615 | 16 | 191 | 16.1 | 25.7 | 0.00 | 0.00 | 0.00 | 58 | 870.2 |
| 20260506121415 | 16 | 197 | 16.1 | 25.7 | 0.00 | 0.00 | 0.00 | 58 | 870.2 |
| 20260506121215 | 16 | 206 | 16.1 | 25.7 | 0.00 | 0.00 | 0.00 | 58 | 870.2 |
| 20260506121015 | 16 | 199 | 12.9 | 22.5 | 0.00 | 0.00 | 0.00 | 59 | 870.2 |
| 20260506120815 | 15 | 166 | 9.7 | 17.7 | 0.00 | 0.00 | 0.00 | 59 | 870.2 |
| 20260506120603 | 15 | 153 | 6.4 | 14.5 | 0.00 | 0.00 | 0.00 | 59 | 870.2 |